COSMOS 1691 DEB, 18565

Orbit data source: Space-Track

COSMOS 1691 DEB, 18565 is space debris in LEO originally from a launch on Wed, 09 Oct 1985 UTC launched from the Plesetsk Missile And Space Complex (PKMTR). Debris objects in space refer to the collection of defunct objects orbiting the Earth. Examples of debris include non-operational satellites, rocket bodies, and fragments generated from explosions, collisions, or faulty payload assembly.

Loading next visibility...
Identifier
18565, 1985-094U
Orbit
LEO
Country
Flag of CISCIS
Related business
Manufacturer
Unknown
Mission
Spacecraft
Bus & Motor
Unknown
Mass
Unknown
Launch date (UTC)
1985-10-09 (40 years ago)
Launch vehicle
Unknown
Launch site
Plesetsk Missile And Space Complex (PKMTR)
Object type
Payload
Rocket body
Debris
Shape & HBR
Unknown shape, 0.1 m
Radar Cross Section
Small (<0.1 m²)

Expand to show TLE details & history
Last TLE update: 3 days ago

TLE from 3 days ago
0 COSMOS 1691 DEB
1 18565U 85094U   25293.04789859  .00004995  00000-0  61099-2 0  9996
2 18565  82.4869 317.5285 0115962  63.1278 317.3966 13.62701725658419
Epoch: 2025-10-20T01:08Z
TLE epoch observation values (Epoch: 2025-10-20T01:08:58.438Z)
Latitude
19.44039°
Longitude
-85.81672°
Altitude
965.564 km
Speed
7.402 km/s
True Right ascension
21h 20m 43s
True Declination
19° 20' 09"
Sunlit
Object was in daylight at epoch
Visualization orbit readout
Latitude
Unknown
Longitude
Unknown
Altitude
Unknown
Speed
Unknown
Apparent Right ascension
Unknown
Apparent Declination
Unknown
Sunlit
N/A
Visualization observer readout
Local Sidereal Time
09:55:04
Azimuth
Unknown
Elevation
Unknown
Doppler factor
Unknown
Orbital elements
Apogee altitude
1,108.899 km
Perigee altitude
937.247 km
Semi-major axis
7,401.21 km
Eccentricity
0.0116
Inclination
82.4869°
RAAN
317.5285°
Arg. of periapsis
63.1278°
True anomaly
316.48743°
Mean anomaly
317.3966°
Eccentric anomaly
316.94299°
Mean motion
3.4087 °/min
Orbital period
105.61 mins
BSTAR
0.0061099
Loading maneuver chart data...
Computing Atmospheric mass density...
Loading historical data...
Loading historical data...
Loading historical data...
Loading historical data...
Loading historical data...
Loading historical data...
Loading historical data...

Documentation

Showing up to 5 results
|